Location: Asheville, NC
(35.6000°N, 82.5500°W)
Time: 17:22:11

Envisat - Pass Details

Date: 13 March 2018
Orbit: 764 x 766 km, 98.2° (Epoch: 18 March)

Event Time Altitude Azimuth Distance (km) Brightness Sun altitude
Rises 20:48:42 0° 160° (SSE) 3,213 6.0 -15.5°
Reaches altitude 10° 20:51:00 10° 158° (SSE) 2,290 5.2 -16.0°
Maximum altitude 20:56:01 71° 75° (ENE) 806 2.9 -17.0°
Drops below altitude 10° 21:01:04 10° 352° (N) 2,304 5.7 -18.0°
Sets 21:03:23 0° 351° (N) 3,234 6.5 -18.5°
